📊 Raw Sensor Data

Showing records 46401 to 46425 of 85,069 total

ID Distance (ft) Battery V Battery A Int Temp (°F) Int Humid (%) Ext Temp (°F) Solar V RSSI SNR Time Stamp
38681 -- 3.97 -5 46 41 48 0.00 -87 7 04/24/2025 01:45 AM
38680 -- 3.91 -5 46 41 48 0.00 -90 7 04/24/2025 01:30 AM
38679 -- 3.97 -5 47 41 47 0.00 -89 8 04/24/2025 01:15 AM
38678 -- 3.91 -5 47 42 48 0.10 -95 7 04/24/2025 01:00 AM
38677 -- 3.97 -5 47 42 48 0.10 -91 8 04/24/2025 12:45 AM
38676 -- 3.91 -5 47 42 49 0.00 -89 7 04/24/2025 12:30 AM
38675 -- 3.97 -5 47 42 48 0.10 -94 6 04/24/2025 12:15 AM
38674 -- 3.92 -5 48 42 49 0.00 -90 8 04/24/2025 12:00 AM
38673 -- 3.97 -5 48 42 49 0.00 -87 7 04/23/2025 11:45 PM
38672 -- 3.92 -5 48 42 49 0.00 -84 8 04/23/2025 11:30 PM
38671 -- 3.92 -5 48 42 50 0.10 -84 9 04/23/2025 11:16 PM
38670 -- 3.98 -5 49 42 50 0.00 -83 8 04/23/2025 11:00 PM
38669 -- 3.92 -5 49 43 50 0.10 -93 7 04/23/2025 10:45 PM
38668 -- 3.98 -5 49 43 50 0.00 -87 7 04/23/2025 10:30 PM
38667 -- 3.92 -5 50 43 51 0.00 -87 7 04/23/2025 10:15 PM
38666 -- 3.92 -5 50 43 51 0.00 -84 8 04/23/2025 10:00 PM
38665 -- 3.92 -35 50 44 51 0.00 -93 7 04/23/2025 09:45 PM
38664 -- 3.92 -5 51 44 51 0.00 -90 7 04/23/2025 09:30 PM
38663 -- 3.98 -5 51 45 52 0.10 -86 7 04/23/2025 09:15 PM
38662 -- 3.93 -5 52 45 52 0.00 -84 8 04/23/2025 09:00 PM
38661 -- 3.93 -5 52 46 53 0.10 -80 8 04/23/2025 08:45 PM
38660 -- 3.93 -5 53 47 53 0.00 -85 7 04/23/2025 08:30 PM
38659 -- 3.93 -5 54 48 54 0.00 -86 6 04/23/2025 08:15 PM
38658 -- 3.99 -5 55 49 54 0.90 -81 7 04/23/2025 08:00 PM
38657 -- 3.99 -6 57 50 56 4.40 -81 8 04/23/2025 07:46 PM